User: anonymous
Location: Unspecified
(0.0000°N, 0.0000°E)
Time: 22:09:51
(UTC+02:00)
Language:

ARIANE 5 R/B - Orbit

View from above orbital plane
View from above orbital plane
View from above satellite
View from above satellite

Ground track
Ground track

The orbit data is extracted from the following two-line orbital elements,

1 29646U 06054D   14260.63360155  .00009013  00000-0  23623-2 0  7320
2 29646 002.7744 063.8544 7154279 119.5081 353.1827 02.44258281 66763
Epoch (UTC): 17 September 2014 15:12:23
Eccentricity: 0.7154279
inclination: 2.7744°
perigee height: 249 km
apogee height: 33574 km
right ascension of ascending node: 63.8544°
argument of perigee: 119.5081°
revolutions per day: 2.44258281
mean anomaly at epoch: 353.1827°
orbit number at epoch: 6676

The dashed part of the orbit path shows where the satellite is in the earth's shadow,  

DLR